EHI
0 0 0 0 0 0 0 0 0 0 0 0 0 0 0 0 0 0 0 0 0 0 1 2 2 3 3 3 1 0 0 0 0 0 0 0 0 0 0 0 0 0 0 0
0 0 0 0 0 0 0 0 0 0 0 0 0 0 0 0 0 0 0 0 0 0 0 1 1 2 3 3 2 1 0 0 0 0 0 0 0 0 0 0 0 0 0 0
0 0 0 0 0 0 0 0 0 0 0 0 0 0 0 0 0 0 0 0 0 0 0 0 0 1 2 3 2 1 0 0 0 0 0 0 0 0 0 0 0 0 0 0
0 0 0 0 0 0 0 0 0 0 0 0 0 0 0 0 0 0 0 0 0 0 0 0 0 0 1 1 1 1 0 0 0 0 0 0 0 0 0 0 0 0 0 0
0 0 0 0 0 0 0 0 0 0 0 0 0 0 0 0 0 0 0 0 0 0 0 0 0 0 0 0 0 0 0 0 0 0 0 0 0 0 0 0 0 0 0 0
0 0 0 0 0 0 0 0 0 0 0 0 0 0 0 0 0 0 0 0 0 0 0 0 0 0 0 0 0 0 0 0 0 0 0 0 0 0 0 0 0 0 0 0
0 0 0 0 0 0 0 0 0 0 0 0 0 0 0 0 0 0 0 0 0 0 0 0 0 0 0 0 0 0 0 0 0 0 0 0 0 0 0 0 0 0 0 0
0 0 0 0 0 0 0 0 0 0 0 0 0 0 0 0 0 0 0 0 0 0 0 0 0 0 0 0 0 0 0 0 0 0 0 0 0 0 0 0 0 0 0 0
0 0 0 0 0 0 0 0 0 0 0 0 0 0 0 0 0 0 0 0 0 0 0 0 0 0 0 0 0 0 0 0 0 0 0 0 0 0 0 0 0 0 0 0
0 0 0 0 0 0 0 0 0 0 0 0 0 0 0 0 0 0 0 0 0 0 0 0 0 0 0 0 0 0 0 0 0 0 0 0 0 0 0 0 0 0 0 0
0 0 0 0 0 0 0 0 0 0 0 0 0 0 0 0 0 0 0 0 0 0 0 0 0 0 0 0 0 0 0 0 0 0 0 0 0 0 0 0 0 0 0 0
0 0 0 0 0 0 0 0 0 0 0 0 0 0 0 0 0 0 0 0 0 0 0 0 0 0 0 0 0 0 0 0 0 0 0 0 0 0 0 0 0 0 0 0
0 0 0 0 0 0 0 0 0 0 0 0 0 0 0 0 0 0 0 0 0 0 0 0 0 0 0 0 0 0 0 0 0 0 0 0 0 0 0 0 0 0 0 0
0 0 0 0 0 0 0 0 0 0 0 0 0 0 0 0 0 0 0 0 0 0 0 0 0 0 0 0 0 0 0 0 0 0 0 0 0 0 0 0 0 0 0 0
0 0 0 0 0 0 0 0 0 0 0 0 0 0 0 0 0 0 0 0 0 0 0 0 0 0 0 0 0 0 0 0 0 0 0 0 0 0 0 0 0 0 0 0
0 0 0 0 0 0 0 0 0 0 0 0 0 0 0 0 0 0 0 0 0 0 0 0 0 0 0 0 0 0 0 0 0 0 0 0 0 0 0 0 0 0 0 0
0 0 0 0 0 0 0 0 0 0 0 0 0 0 0 0 0 0 0 0 0 0 0 0 0 0 0 0 0 0 0 0 0 0 0 0 0 0 0 0 0 0 0 0
0 0 0 0 0 0 0 0 0 0 0 0 0 0 0 0 0 0 0 0 0 0 0 0 0 0 0 0 0 0 0 0 0 0 0 0 0 0 0 0 0 0 0 0
0 0 0 0 0 0 0 0 0 0 0 0 0 0 0 0 0 0 0 0 0 0 0 0 0 0 0 0 0 0 0 0 0 0 0 0 0 0 0 0 0 0 0 0
0 0 0 0 0 0 0 0 0 0 0 0 0 0 0 0 0 0 0 0 0 0 0 0 0 0 0 0 0 0 0 0 0 0 0 0 0 0 0 0 0 0 0 0
0 0 0 0 0 0 0 0 0 0 0 0 0 0 0 0 0 0 0 0 0 0 0 0 0 0 0 0 0 0 0 0 0 0 0 0 0 0 0 0 0 0 0 0
0 0 0 0 0 0 0 0 0 0 0 0 0 0 0 0 0 0 0 0 0 0 0 0 0 0 0 0 0 0 0 0 0 0 0 0 0 0 0 0 0 0 0 0
0 0 0 0 0 0 0 0 0 0 0 0 0 0 0 0 0 0 0 0 0 0 0 0 0 0 0 0 0 0 0 0 0 0 0 0 0 0 0 0 0 0 0 0
0 0 0 0 0 0 0 0 0 0 0 0 0 0 0 0 0 0 0 0 0 0 0 0 0 0 0 0 0 0 0 0 0 0 0 0 0 0 0 0 0 0 0 0
0 0 0 0 0 0 0 0 0 0 0 0 0 0 0 0 0 0 0 0 0 0 0 0 0 0 0 0 0 0 0 0 0 0 0 0 0 0 0 0 0 0 0 0
0 0 0 0 0 0 0 0 0 0 0 0 0 0 0 0 0 0 0 0 0 0 0 0 0 0 0 0 0 0 0 0 0 0 0 0 0 0 0 0 0 0 0 0
Wind_Speed
0 2 4 5 8 8 8 9 10 7 4 5 7 6 3 1 1 2 2 1 1 1 0 1 1 1 2 2 2 3 3 3 2 2 2 3 3 3 2 2 3 3 4 4
2 3 4 5 6 7 8 9 8 4 4 6 6 5 4 2 1 2 2 1 1 1 1 1 2 2 1 1 1 2 2 3 2 2 2 2 2 2 2 2 2 3 4 4
3 3 3 3 3 6 7 8 7 5 3 5 6 6 5 3 1 1 1 1 0 1 1 1 1 1 1 1 1 1 2 2 2 2 2 2 2 2 2 2 2 2 3 3
3 4 3 3 4 5 7 5 5 5 5 4 7 5 4 3 1 1 2 1 1 1 1 0 1 1 1 0 0 0 1 1 1 2 3 4 3 3 3 2 2 2 3 3
2 3 3 3 4 5 5 4 5 6 6 4 5 5 2 2 2 2 1 1 1 1 0 1 1 2 1 1 1 1 1 1 1 1 2 3 3 3 2 3 3 3 3 3
3 2 3 5 4 3 2 3 3 4 4 6 5 6 2 1 2 2 1 2 2 2 2 2 2 2 2 3 2 2 2 1 0 1 1 2 3 3 4 4 4 3 2 3
4 2 4 5 4 2 1 1 2 3 4 4 3 4 1 3 2 1 2 2 3 3 3 3 3 3 3 4 3 2 2 1 1 1 0 1 2 3 4 4 4 3 3 3
5 3 6 5 4 3 2 3 2 2 3 1 3 3 2 4 4 3 3 3 3 4 4 4 3 3 3 3 3 3 2 1 1 1 1 1 1 2 2 3 3 3 3 3
4 4 5 5 5 3 2 2 3 3 2 2 2 1 1 4 5 6 6 6 5 4 4 4 4 4 4 3 3 3 2 2 2 1 1 1 1 1 2 2 2 2 2 2
4 5 5 5 3 5 3 2 2 3 3 3 2 1 1 4 5 6 6 7 6 5 5 4 4 4 4 4 4 3 3 2 2 2 1 1 1 1 2 2 2 2 3 3
3 3 4 3 5 7 4 1 2 2 3 3 2 1 4 1 2 4 5 6 6 6 5 5 5 4 4 4 4 4 3 3 3 2 2 2 2 2 2 2 2 2 3 3
3 3 3 2 4 5 5 3 1 1 1 2 2 1 5 3 3 5 6 6 6 6 5 5 5 5 5 5 4 4 4 3 3 3 3 2 2 2 2 2 3 3 3 3
3 2 3 0 2 5 5 6 3 1 1 2 3 1 3 4 5 6 6 7 7 6 6 5 5 5 5 5 5 4 4 4 4 3 3 2 2 2 3 3 3 3 3 3
2 1 1 2 3 4 4 5 4 1 1 2 2 3 3 6 7 7 7 7 7 7 6 6 6 6 6 5 5 5 4 4 4 3 3 3 3 3 3 3 3 3 3 4
2 1 0 2 2 2 3 4 3 1 3 3 3 4 5 6 6 7 7 7 7 8 8 7 6 6 6 6 6 5 5 4 4 3 3 3 4 4 3 3 3 3 3 4
3 2 1 2 2 2 3 5 4 3 3 3 4 5 5 5 5 6 7 7 7 7 8 8 7 7 6 6 6 5 5 5 4 3 3 4 4 4 3 3 3 3 3 3
2 2 2 2 2 2 3 4 2 1 2 3 4 5 5 6 7 7 8 7 7 7 8 8 8 7 6 6 6 5 5 5 4 4 4 4 4 4 4 3 3 3 3 3
2 2 2 2 1 1 1 2 2 2 2 3 4 5 6 6 7 7 6 6 7 8 8 8 7 7 6 6 5 5 5 4 4 4 4 4 4 4 4 3 3 4 3 3
2 2 1 1 1 2 1 2 3 3 3 4 5 6 7 7 6 3 5 7 8 8 7 7 7 7 6 5 5 5 4 4 4 5 5 5 5 4 4 4 4 4 3 3
2 1 1 1 2 3 2 3 4 4 2 4 5 6 7 7 5 5 8 10 9 8 7 7 6 6 5 5 4 4 4 4 5 5 6 5 5 4 4 4 4 4 3 3
1 1 1 2 3 2 3 4 3 3 3 5 6 6 7 6 6 8 10 9 8 8 7 6 6 5 5 5 4 4 5 5 6 6 6 5 5 4 4 4 3 3 2 2
2 2 1 2 3 2 3 1 0 3 5 5 6 6 7 7 8 9 9 9 9 8 8 6 5 5 5 5 4 5 5 6 6 6 6 5 5 4 3 3 3 3 2 2
3 2 2 3 2 2 0 2 3 4 5 6 6 6 6 7 8 9 9 8 8 8 7 6 6 6 5 5 5 5 6 6 6 6 6 5 5 4 3 3 3 3 2 2
2 1 3 3 4 4 4 4 5 5 6 7 7 7 6 7 8 8 8 8 8 7 6 6 5 5 6 6 5 5 5 5 5 6 5 5 4 4 4 3 3 2 2 1
2 2 3 4 5 5 4 4 6 6 7 7 6 6 6 7 7 8 7 7 7 7 6 6 5 5 6 6 6 5 5 5 5 5 5 4 4 4 4 4 3 3 2 3
2 3 3 4 3 4 5 5 6 6 6 6 7 7 6 6 7 7 7 6 6 6 6 6 6 6 6 6 6 6 5 5 5 4 4 3 3 3 3 3 4 5 4 5
Wind_Direction
162 212 228 230 230 249 243 238 242 245 227 217 221 236 241 239 195 206 227 259 261 258 160 92 81 102 105 102 129 152 149 146 148 149 153 156 160 155 151 155 157 163 168 173
213 243 264 262 242 244 239 244 245 254 234 223 221 238 240 240 233 224 226 252 252 299 320 60 61 74 91 112 109 151 160 165 170 168 164 164 159 156 155 154 160 169 171 177
266 321 293 261 254 242 242 241 242 242 244 218 215 228 226 247 246 275 276 265 272 272 231 50 45 66 73 95 121 175 182 176 172 161 153 137 132 134 154 165 169 178 181 183
281 310 303 274 265 255 246 241 238 221 225 220 212 234 210 215 236 296 296 278 302 312 253 72 40 48 60 30 27 72 188 164 163 163 171 176 184 185 188 184 182 180 185 188
312 327 314 293 287 259 254 257 236 223 228 238 219 233 225 172 246 282 288 300 324 333 13 49 32 35 44 47 44 34 58 126 155 179 180 192 199 199 182 179 183 187 185 191
325 332 337 321 307 265 254 226 214 212 221 233 219 217 243 122 272 299 335 7 8 9 39 47 37 42 42 44 43 44 54 52 97 171 182 202 201 195 191 190 187 190 189 193
352 29 13 353 349 13 339 231 210 200 208 227 181 208 272 33 13 347 340 358 20 28 35 43 36 31 30 34 29 36 43 35 33 48 208 225 215 207 205 201 200 198 197 201
337 353 17 2 346 298 261 244 262 253 236 222 184 218 89 44 32 25 15 9 22 28 32 29 22 21 23 26 23 31 22 11 17 21 332 286 249 225 221 216 211 211 211 211
329 319 359 6 359 331 276 249 281 282 284 250 211 114 124 24 25 22 17 14 11 10 16 18 19 18 13 11 14 18 6 1 3 356 344 314 279 246 231 226 224 221 223 219
313 300 337 351 359 22 340 306 247 237 247 237 221 227 335 0 359 3 8 6 1 2 8 11 11 10 7 2 4 10 2 357 358 359 346 329 313 274 248 235 233 229 224 220
322 302 329 14 20 358 9 360 314 254 278 264 232 100 29 12 3 357 357 357 356 358 3 3 4 3 4 5 5 5 4 1 359 358 346 337 329 302 262 244 239 238 234 225
343 305 304 349 39 15 25 18 327 244 271 267 259 50 40 28 26 10 2 359 357 357 359 3 4 3 3 3 2 1 358 354 348 345 340 337 328 310 275 254 248 243 240 236
350 319 302 188 99 32 25 22 5 334 291 267 241 213 52 21 9 7 3 359 357 359 2 5 4 1 359 357 355 352 349 345 340 337 335 330 318 305 286 272 260 249 242 237
2 343 302 304 342 351 346 0 4 11 240 259 265 285 326 344 348 350 353 352 350 355 358 359 358 356 354 351 347 343 342 340 336 336 333 326 311 302 291 279 262 251 245 239
355 282 254 295 318 354 355 341 353 355 293 271 284 297 315 325 333 336 342 345 349 352 352 351 351 349 346 345 343 340 336 336 333 332 328 324 315 305 292 282 270 257 248 246
353 272 252 279 297 3 359 343 330 318 315 294 295 301 323 328 334 336 339 339 341 344 343 342 343 341 338 336 335 334 333 331 326 323 322 319 311 308 300 291 279 265 253 246
313 274 272 286 322 286 328 326 301 320 340 299 295 304 321 325 333 334 331 333 334 338 336 333 332 329 328 328 327 326 324 322 319 316 314 313 309 307 300 296 288 277 267 254
266 256 261 291 305 261 46 36 313 273 325 327 308 310 317 322 321 319 327 336 336 333 328 326 326 326 324 325 325 322 320 322 322 318 315 313 312 306 303 297 291 286 277 262
260 251 257 266 255 257 289 1 341 286 297 343 326 326 331 330 310 319 353 343 332 326 322 321 322 321 321 324 326 324 324 329 328 323 317 313 309 303 300 299 296 288 277 272
52 291 257 239 248 260 357 348 321 256 256 18 342 326 330 332 315 328 342 334 329 329 327 327 327 327 329 330 330 327 328 332 328 321 316 313 305 298 295 295 295 291 280 274
350 330 260 248 242 267 351 323 287 237 331 341 321 316 317 311 306 314 320 323 325 326 327 330 330 335 335 333 334 331 330 327 323 319 316 313 310 304 299 299 295 292 281 273
256 251 231 238 228 255 25 19 299 315 321 309 311 315 312 306 308 314 321 323 325 327 329 333 335 336 337 338 336 332 328 325 323 321 320 319 319 316 310 310 306 296 279 262
237 259 266 239 258 360 285 276 295 305 298 305 306 307 307 306 311 318 321 323 322 324 327 330 332 331 336 339 335 328 326 326 326 326 325 324 325 324 318 310 303 302 283 256
231 256 243 256 266 279 282 289 303 306 302 305 305 304 304 304 310 314 317 320 321 324 327 330 330 330 331 334 332 326 324 327 328 326 326 328 329 330 331 326 315 307 298 275
263 214 237 256 284 297 278 292 302 304 304 305 307 306 304 304 306 311 313 317 320 322 326 327 327 322 322 326 328 331 330 328 327 329 328 329 331 329 330 332 331 320 311 298
208 210 229 255 269 270 291 307 307 301 302 306 307 307 309 306 304 309 310 313 317 319 323 325 326 326 326 327 330 334 334 332 332 332 332 330 327 326 326 331 338 350 339 338